This demonstration page uses our WeatherBlox Daily Observations layout. Learn more.

Left ArrowRight Arrow

34.02893, -84.19858

Hourly Observations for February 8, 2020

Temp ( °F °C ) Dew Point ( °F °C ) Humidity (%) Winds ( mph kmh ) Pressure ( in mb ) Visibility ( mi km ) Precip ( " mm )
12:53 am 00:53 Clear 29 -1.7 27 -2.8 92 92 Calm 30.20 1023 10 16 0.00 0.00
1:53 am 01:53 Clear 28 -2.2 27 -2.8 96 96 S 3 6 30.22 1023 9 14 0.00 0.00
2:53 am 02:53 Clear 28 -2.2 26 -3.3 92 92 Calm 30.24 1024 9 14 0.00 0.00
3:53 am 03:53 Clear 27 -2.8 26 -3.3 96 96 Calm 30.25 1024 7 11 0.00 0.00
4:53 am 04:53 Mostly Clear 27 -2.8 25 -3.9 92 92 Calm 30.25 1025 7 11 0.00 0.00
5:53 am 05:53 Cloudy 29 -1.7 28 -2.2 96 96 Calm 30.24 1024 9 14 0.00 0.00
6:53 am 06:53 Cloudy 31 -0.6 29 -1.7 92 92 Calm 30.25 1025 10 16 0.00 0.00
7:53 am 07:53 Cloudy 33 0.6 29 -1.7 85 85 Calm 30.25 1024 10 16 0.00 0.00
8:53 am 08:53 Cloudy 34 1.1 28 -2.2 79 79 SE 3 6 30.28 1025 10 16 0.00 0.00
9:21 am 09:21 Cloudy with Light Snow 34 1.1 29 -1.7 82 82 E 3 6 30.29 1026 3 4 0.00 0.00
9:37 am 09:37 Cloudy with Light Snow 33 0.6 30 -1.1 89 89 Calm 30.29 1026 2 2 0.01 0.25
9:53 am 09:53 Cloudy with Light Snow 33 0.6 31 -0.6 92 92 Calm 30.31 1027 2 2 0.02 0.51
10:02 am 10:02 Cloudy with Light Snow 32 0 31 -0.6 96 96 Calm 30.31 1026 1 1 0.00 0.00
10:14 am 10:14 Cloudy with Snow 32 0 32 0 100 100 Calm 30.31 1026 1 1 0.00 0.00
10:22 am 10:22 Cloudy with Snow 32 0 32 0 100 100 Calm 30.32 1027 0 0 0.00 0.00
10:43 am 10:43 Cloudy with Light Snow 32 0 31 -0.6 96 96 Calm 30.32 1027 1 1 0.00 0.00
10:50 am 10:50 Cloudy with Light Snow 32 0 30 -1 93 93 Calm 30.32 1027 1 2 0.00 0.00
10:53 am 10:53 Cloudy with Light Snow 32 0 31 -0.6 96 96 Calm 30.33 1027 1 2 0.00 0.00
11:03 am 11:03 Cloudy with Light Snow 32 0 32 0 100 100 Calm 30.33 1027 1 1 0.01 0.25
11:07 am 11:07 Cloudy with Light Snow 32 0 31 -0.6 96 96 Calm 30.32 1027 1 1 0.01 0.25
11:13 am 11:13 Cloudy with Light Snow 32 0 31 -0.6 96 96 E 3 6 30.32 1027 1 2 0.02 0.51
11:26 am 11:26 Cloudy with Light Wintry Mix 32 0 31 -0.6 96 96 Calm 30.32 1027 2 3 0.04 1.02
11:32 am 11:32 Cloudy with Light Wintry Mix 32 0 31 -0.6 96 96 Calm 30.32 1027 3 5 0.05 1.27
11:39 am 11:39 Cloudy with Light Wintry Mix 33 0.6 31 -0.6 92 92 Calm 30.32 1027 3 4 0.06 1.52
11:48 am 11:48 Cloudy with Light Rain 34 1 32 0 93 93 Calm 30.32 1027 3 5 0.07 1.78
11:53 am 11:53 Cloudy with Light Rain 33 0.6 32 0 96 96 Calm 30.32 1027 3 5 0.08 2.03
12:33 pm 12:33 Cloudy with Mist and Fog 33 0.6 32 0 96 96 ESE 3 6 30.31 1026 3 4 0.04 1.02
12:53 pm 12:53 Cloudy with Light Rain 33 0.6 32 0 96 96 VRB 3 6 30.30 1026 2 3 0.07 1.78
1:08 pm 13:08 Cloudy with Light Rain 34 1.1 33 0.6 97 97 Calm 30.29 1026 3 5 0.00 0.00
1:53 pm 13:53 Cloudy with Mist and Fog 35 1.7 34 1.1 96 96 Calm 30.29 1026 5 8 0.00 0.00
2:53 pm 14:53 Cloudy with Mist and Fog 37 2.8 35 1.7 93 93 Calm 30.30 1026 5 8 0.00 0.00
3:00 pm 15:00 Cloudy with Mist and Fog 37 2.8 35 1.7 93 93 Calm 30.29 1026 6 10 0.00 0.00
3:53 pm 15:53 Cloudy with Mist and Fog 38 3.3 36 2.2 93 93 NNW 3 6 30.32 1027 5 8 0.00 0.00
4:53 pm 16:53 Cloudy with Mist and Fog 39 3.9 37 2.8 93 93 NE 3 6 30.32 1027 4 6 0.00 0.00
5:53 pm 17:53 Cloudy with Mist and Fog 38 3.3 36 2.2 93 93 NE 3 6 30.34 1028 3 5 0.00 0.00
6:30 pm 18:30 Partly Cloudy with Mist and Fog 36 2.2 35 1.7 97 97 Calm 30.35 1028 3 4 0.00 0.00
6:37 pm 18:37 Mostly Cloudy with Mist and Fog 36 2.2 35 1.7 97 97 Calm 30.35 1028 3 5 0.00 0.00
6:46 pm 18:46 Mostly Clear with Mist and Fog 36 2.2 35 1.7 97 97 Calm 30.35 1028 2 3 0.00 0.00
6:53 pm 18:53 Clear with Mist and Fog 36 2.2 34 1.1 93 93 ENE 3 6 30.36 1028 3 5 0.00 0.00
7:06 pm 19:06 Partly Cloudy with Mist and Fog 36 2.2 34 1.1 93 93 NE 5 7 30.36 1028 4 6 0.00 0.00
7:35 pm 19:35 Cloudy with Mist and Fog 36 2.2 34 1.1 93 93 NNE 6 9 30.37 1029 4 6 0.00 0.00
7:53 pm 19:53 Cloudy with Mist and Fog 35 1.7 35 1.7 100 100 NNE 6 9 30.39 1029 3 5 0.00 0.00
8:10 pm 20:10 Cloudy with Mist and Fog 35 1.7 35 1.7 100 100 NE 3 6 30.38 1029 3 4 0.00 0.00
8:37 pm 20:37 Cloudy with Mist and Fog 35 1.7 35 1.7 100 100 E 3 6 30.39 1029 2 3 0.00 0.00
8:51 pm 20:51 Cloudy with Mist and Fog 36 2 36 2 100 100 Calm 30.39 1029 2 2 0.00 0.00
8:53 pm 20:53 Cloudy with Mist and Fog 35 1.7 35 1.7 100 100 E 3 6 30.40 1029 1 2 0.00 0.00
9:00 pm 21:00 Cloudy with Fog 35 1.7 35 1.7 100 100 VRB 3 6 30.39 1029 1 1 0.00 0.00
9:53 pm 21:53 Mostly Cloudy with Fog 34 1.1 34 1.1 100 100 ESE 3 6 30.41 1030 0 0 0.00 0.00
10:53 pm 22:53 Mostly Cloudy with Fog 34 1.1 34 1.1 100 100 NE 3 6 30.42 1030 0 0 0.00 0.00
11:53 pm 23:53 Mostly Cloudy with Fog 34 1.1 34 1.1 100 100 Calm 30.44 1031 0 0 0.00 0.00

Powered by AerisWeather